FIN1764 LIRF-EFHK

Flight info

Callsign FIN1764
Flight time N/A
Altitude 34000
Route OKUNO DCT ATRUP DCT KOPRY DCT BABKO DCT BOKSU DCT GUNTA DCT KEMET Q11 INTOR
Aircraft A321/M-SDE3FGHIRWY/LB1

Departure

Time 2026-02-20 08:54
Airport Rome–Fiumicino Leonardo da Vinci International Airport (LIRF)

Arrival

Time N/A
Airport Helsinki Vantaa Airport (EFHK)
Time Latitude Longitude Altitude Speed Heading
2026-02-20 08:21 41.79861 12.25576 14 ft 0 kts 205°
2026-02-20 08:44 41.79872 12.25583 14 ft 3 kts 205°
2026-02-20 08:44 41.79890 12.25594 16 ft 3 kts 208°
2026-02-20 08:45 41.79906 12.25609 16 ft 3 kts 230°
2026-02-20 08:45 41.79915 12.25629 16 ft 3 kts 268°
2026-02-20 08:45 41.79914 12.25646 15 ft 1 kts 295°
2026-02-20 08:45 41.79919 12.25633 15 ft 3 kts 295°
2026-02-20 08:46 41.79927 12.25609 16 ft 2 kts 295°
2026-02-20 08:46 41.79930 12.25602 15 ft 0 kts 295°
2026-02-20 08:48 41.79930 12.25601 15 ft 0 kts 295°
2026-02-20 08:48 41.79935 12.25586 14 ft 4 kts 295°
2026-02-20 08:48 41.79957 12.25553 14 ft 5 kts 349°
2026-02-20 08:49 41.79997 12.25576 15 ft 7 kts 39°
2026-02-20 08:49 41.79988 12.25643 14 ft 9 kts 112°
2026-02-20 08:49 41.79956 12.25735 15 ft 13 kts 115°
2026-02-20 08:49 41.79931 12.25854 14 ft 15 kts 68°
2026-02-20 08:50 41.80003 12.25903 14 ft 13 kts 25°
2026-02-20 08:50 41.80095 12.25960 14 ft 16 kts 25°
2026-02-20 08:50 41.80207 12.26029 14 ft 19 kts 25°
2026-02-20 08:50 41.80337 12.26108 14 ft 22 kts 25°
2026-02-20 08:51 41.80475 12.26176 16 ft 19 kts
2026-02-20 08:51 41.80529 12.26241 16 ft 12 kts 69°
2026-02-20 08:51 41.80561 12.26356 18 ft 15 kts 69°
2026-02-20 08:51 41.80601 12.26503 15 ft 18 kts 70°
2026-02-20 08:52 41.80649 12.26677 15 ft 21 kts 70°
2026-02-20 08:52 41.80704 12.26875 14 ft 23 kts 70°
2026-02-20 08:52 41.80758 12.27041 14 ft 12 kts 45°
2026-02-20 08:52 41.80824 12.27033 13 ft 10 kts 340°
2026-02-20 08:53 41.80893 12.27000 13 ft 11 kts 340°
2026-02-20 08:53 41.80958 12.26945 12 ft 12 kts 290°
2026-02-20 08:53 41.80934 12.26839 15 ft 13 kts 249°
2026-02-20 08:53 41.80838 12.26495 17 ft 73 kts 250°
2026-02-20 08:54 41.80588 12.25583 16 ft 134 kts 250°
2026-02-20 08:54 41.80203 12.24194 26 ft 181 kts 249°
2026-02-20 08:54 41.79756 12.22586 549 ft 185 kts 250°
2026-02-20 08:54 41.79215 12.21058 1206 ft 185 kts 233°
2026-02-20 08:55 41.78271 12.19824 1600 ft 197 kts 220°
2026-02-20 08:55 41.77181 12.18605 1844 ft 209 kts 219°
2026-02-20 08:55 41.76011 12.17408 2281 ft 213 kts 209°
2026-02-20 08:55 41.74582 12.16814 2673 ft 223 kts 185°
2026-02-20 08:56 41.72957 12.16852 2798 ft 244 kts 177°
2026-02-20 08:56 41.71196 12.16949 3016 ft 264 kts 178°
2026-02-20 08:56 41.69319 12.17046 3494 ft 273 kts 178°
2026-02-20 08:56 41.67401 12.17142 4142 ft 278 kts 178°
2026-02-20 08:57 41.65456 12.17239 4819 ft 281 kts 179°
2026-02-20 08:57 41.63496 12.17334 5482 ft 284 kts 179°
2026-02-20 08:57 41.61509 12.17429 6147 ft 287 kts 178°
2026-02-20 08:57 41.59534 12.17521 6774 ft 290 kts 178°
2026-02-20 08:58 41.57506 12.17613 7374 ft 293 kts 179°
2026-02-20 08:58 41.55451 12.17720 7976 ft 297 kts 175°
2026-02-20 08:58 41.53468 12.18496 8571 ft 300 kts 148°
2026-02-20 08:58 41.51898 12.20304 9156 ft 299 kts 123°
2026-02-20 08:59 41.51004 12.22778 9748 ft 296 kts 99°
2026-02-20 08:59 41.50879 12.25487 10289 ft 293 kts 81°
2026-02-20 08:59 41.51038 12.28229 10667 ft 305 kts 81°
2026-02-20 08:59 41.51210 12.31138 10799 ft 324 kts 82°
2026-02-20 09:00 41.51394 12.34225 10927 ft 342 kts 79°
2026-02-20 09:00 41.51962 12.37360 11053 ft 354 kts 65°
2026-02-20 09:00 41.53148 12.40238 11176 ft 364 kts 49°
2026-02-20 09:00 41.54950 12.42661 11393 ft 371 kts 33°
2026-02-20 09:01 41.57193 12.44360 11854 ft 372 kts 22°
2026-02-20 09:01 41.59557 12.45820 12417 ft 376 kts 22°
2026-02-20 09:01 41.61943 12.47293 12970 ft 379 kts 22°
2026-02-20 09:01 41.64349 12.48784 13558 ft 383 kts 22°
2026-02-20 09:02 41.66778 12.50290 14061 ft 386 kts 22°
2026-02-20 09:02 41.69222 12.51802 14560 ft 389 kts 22°
2026-02-20 09:02 41.71694 12.53334 15069 ft 393 kts 22°
2026-02-20 09:02 41.74181 12.54884 15623 ft 396 kts 22°
2026-02-20 09:03 41.76686 12.56445 16139 ft 399 kts 22°
2026-02-20 09:03 41.79212 12.58018 16632 ft 402 kts 22°
2026-02-20 09:03 41.81658 12.59893 17100 ft 408 kts 31°
2026-02-20 09:03 41.83994 12.62084 17564 ft 411 kts 32°
2026-02-20 09:04 41.86316 12.64270 18010 ft 414 kts 32°
2026-02-20 09:04 41.88685 12.66502 18417 ft 417 kts 32°
2026-02-20 09:04 41.91070 12.68749 18772 ft 420 kts 32°
2026-02-20 09:04 41.93475 12.71019 19107 ft 425 kts 32°
2026-02-20 09:05 41.95907 12.73315 19463 ft 428 kts 32°
2026-02-20 09:05 41.97525 12.74844 19713 ft 430 kts 32°
2026-02-20 09:05 41.99987 12.77170 20089 ft 433 kts 32°
2026-02-20 09:05 42.03103 12.80665 20573 ft 441 kts 44°
2026-02-20 09:06 42.04437 12.82747 20812 ft 445 kts 51°
2026-02-20 09:06 42.06123 12.86258 21166 ft 450 kts 59°
2026-02-20 09:06 42.07664 12.89950 21538 ft 452 kts 59°
2026-02-20 09:06 42.09210 12.93654 21903 ft 455 kts 59°
2026-02-20 09:07 42.11279 12.98601 22379 ft 459 kts 59°
2026-02-20 09:07 42.12321 13.01155 22630 ft 461 kts 60°
2026-02-20 09:07 42.13839 13.04979 22967 ft 464 kts 61°
2026-02-20 09:07 42.15317 13.08790 23331 ft 466 kts 62°
2026-02-20 09:08 42.16810 13.12685 23637 ft 469 kts 62°
2026-02-20 09:08 42.18310 13.16602 23911 ft 472 kts 61°
2026-02-20 09:08 42.19823 13.20541 24192 ft 474 kts 61°
2026-02-20 09:08 42.21352 13.24499 24498 ft 476 kts 61°
2026-02-20 09:09 42.22892 13.28473 24811 ft 478 kts 60°
2026-02-20 09:09 42.24437 13.32451 25206 ft 477 kts 60°
2026-02-20 09:09 42.25978 13.36415 25655 ft 476 kts 60°
2026-02-20 09:09 42.27510 13.40365 26099 ft 474 kts 60°
2026-02-20 09:10 42.29037 13.44321 26545 ft 473 kts 60°
2026-02-20 09:10 42.30551 13.48256 26988 ft 471 kts 60°
2026-02-20 09:10 42.32059 13.52174 27424 ft 469 kts 60°
2026-02-20 09:10 42.33777 13.55905 27856 ft 466 kts 51°
2026-02-20 09:11 42.35837 13.59184 28270 ft 462 kts 43°
2026-02-20 09:11 42.38237 13.62028 28698 ft 457 kts 34°
2026-02-20 09:11 42.40889 13.64365 29093 ft 454 kts 28°
2026-02-20 09:11 42.43618 13.66539 29548 ft 452 kts 28°
2026-02-20 09:12 42.46321 13.68706 29992 ft 450 kts 28°
2026-02-20 09:12 42.49013 13.70871 30311 ft 449 kts 28°
2026-02-20 09:12 42.51664 13.73008 30596 ft 449 kts 28°
2026-02-20 09:12 42.54345 13.75174 30861 ft 449 kts 28°
2026-02-20 09:13 42.57026 13.77343 31133 ft 449 kts 28°
2026-02-20 09:13 42.59709 13.79513 31410 ft 449 kts 28°
2026-02-20 09:13 42.62397 13.81687 31716 ft 448 kts 28°
2026-02-20 09:13 42.65078 13.83856 31870 ft 448 kts 28°
2026-02-20 09:14 42.70436 13.88189 31895 ft 449 kts 28°
2026-02-20 09:14 42.75821 13.92561 31899 ft 450 kts 28°
2026-02-20 09:15 42.81195 13.96934 31893 ft 449 kts 28°
2026-02-20 09:15 42.86557 14.01307 32219 ft 449 kts 28°
2026-02-20 09:16 42.89237 14.03497 32485 ft 449 kts 28°
2026-02-20 09:16 42.91912 14.05684 32738 ft 448 kts 28°
2026-02-20 09:16 42.94592 14.07876 32972 ft 448 kts 28°
2026-02-20 09:16 42.97264 14.10065 33209 ft 448 kts 28°
2026-02-20 09:17 42.99908 14.12234 33458 ft 447 kts 28°
2026-02-20 09:17 43.02577 14.14427 33701 ft 447 kts 28°
2026-02-20 09:17 43.05241 14.16620 33865 ft 448 kts 28°
2026-02-20 09:17 43.07927 14.18829 33903 ft 451 kts 29°
2026-02-20 09:18 43.13315 14.23265 33900 ft 453 kts 28°
2026-02-20 09:18 43.18725 14.27730 33895 ft 454 kts 28°
2026-02-20 09:19 43.24106 14.32180 33897 ft 454 kts 28°
2026-02-20 09:19 43.29523 14.36676 33889 ft 455 kts 28°
2026-02-20 09:20 43.34933 14.41177 33902 ft 455 kts 29°
2026-02-20 09:20 43.40357 14.45688 33904 ft 454 kts 30°
2026-02-20 09:21 43.45724 14.50158 33898 ft 453 kts 29°
2026-02-20 09:21 43.51123 14.54659 33897 ft 453 kts 29°
2026-02-20 09:22 43.56516 14.59185 33893 ft 453 kts 29°
2026-02-20 09:22 43.61899 14.63719 33891 ft 453 kts 30°
2026-02-20 09:23 43.67290 14.68260 33887 ft 453 kts 30°
2026-02-20 09:23 43.72680 14.72804 33885 ft 453 kts 30°
2026-02-20 09:24 43.78066 14.77353 33881 ft 453 kts 30°
2026-02-20 09:24 43.83419 14.81875 33881 ft 453 kts 30°
2026-02-20 09:25 43.88796 14.86440 33876 ft 453 kts 30°
2026-02-20 09:25 43.94170 14.91009 33879 ft 453 kts 30°
2026-02-20 09:26 43.99555 14.95592 33867 ft 454 kts 30°
2026-02-20 09:26 44.04953 15.00198 33847 ft 455 kts 30°
2026-02-20 09:27 44.10356 15.04824 33843 ft 456 kts 30°
2026-02-20 09:27 44.15733 15.09434 33836 ft 457 kts 30°
2026-02-20 09:28 44.21141 15.14089 33840 ft 457 kts 30°
2026-02-20 09:28 44.26563 15.18764 33839 ft 458 kts 30°
2026-02-20 09:29 44.31984 15.23440 33842 ft 458 kts 30°
2026-02-20 09:29 44.37405 15.28139 33867 ft 459 kts 30°
2026-02-20 09:30 44.42798 15.32820 33883 ft 459 kts 30°
2026-02-20 09:30 44.48168 15.37486 33887 ft 460 kts 31°
2026-02-20 09:31 44.53603 15.42215 33908 ft 460 kts 30°
2026-02-20 09:31 44.59049 15.46969 33922 ft 460 kts 30°
2026-02-20 09:32 44.64447 15.51692 33939 ft 460 kts 30°
2026-02-20 09:32 44.69885 15.56455 33938 ft 460 kts 31°
2026-02-20 09:33 44.75312 15.61227 33947 ft 460 kts 31°
2026-02-20 09:33 44.80733 15.66000 33957 ft 459 kts 31°
2026-02-20 09:34 44.86149 15.70773 33961 ft 459 kts 31°
2026-02-20 09:34 44.91555 15.75555 33965 ft 459 kts 32°
2026-02-20 09:35 45.02213 15.85032 33965 ft 459 kts 31°
2026-02-20 09:36 45.07611 15.89846 33966 ft 458 kts 32°
2026-02-20 09:36 45.13011 15.94662 33949 ft 459 kts 32°
2026-02-20 09:37 45.18427 15.99502 33942 ft 461 kts 32°
2026-02-20 09:37 45.23854 16.04373 33936 ft 462 kts 32°
2026-02-20 09:38 45.29296 16.09259 33939 ft 463 kts 32°
2026-02-20 09:38 45.34741 16.14164 33946 ft 464 kts 32°
2026-02-20 09:39 45.40153 16.19058 33942 ft 464 kts 32°
2026-02-20 09:39 45.45598 16.23994 33947 ft 464 kts 32°
2026-02-20 09:40 45.51042 16.28932 33948 ft 463 kts 33°
2026-02-20 09:40 45.56474 16.33869 33951 ft 463 kts 33°
2026-02-20 09:41 45.61902 16.38810 33951 ft 463 kts 32°
2026-02-20 09:41 45.67290 16.43733 33957 ft 462 kts 33°
2026-02-20 09:42 45.72707 16.48706 33962 ft 462 kts 33°
2026-02-20 09:43 45.80870 16.56186 33942 ft 463 kts 33°
2026-02-20 09:43 45.86259 16.61139 33935 ft 463 kts 34°
2026-02-20 09:44 45.91679 16.66158 33942 ft 464 kts 34°
2026-02-20 09:44 45.97099 16.71182 33938 ft 464 kts 35°
2026-02-20 09:45 46.02540 16.76215 33944 ft 465 kts 34°
2026-02-20 09:45 46.07981 16.81255 33954 ft 465 kts 34°
2026-02-20 09:46 46.13413 16.86327 33958 ft 465 kts 36°
2026-02-20 09:46 46.18855 16.91432 33957 ft 466 kts 35°
2026-02-20 09:47 46.24332 16.96449 33969 ft 467 kts 29°
2026-02-20 09:47 46.30162 17.00515 33978 ft 468 kts 28°
2026-02-20 09:48 46.36041 17.04595 33981 ft 469 kts 28°
2026-02-20 09:48 46.41927 17.08695 34006 ft 468 kts 27°
2026-02-20 09:49 46.47799 17.12797 34024 ft 468 kts 28°
2026-02-20 09:49 46.53674 17.16901 34023 ft 468 kts 29°
2026-02-20 09:50 46.59540 17.21003 34043 ft 468 kts 29°
2026-02-20 09:50 46.65410 17.25123 34049 ft 467 kts 28°
2026-02-20 09:51 46.71263 17.29241 34035 ft 467 kts 29°
2026-02-20 09:51 46.77086 17.33352 34031 ft 468 kts 28°
2026-02-20 09:52 46.82943 17.37511 34027 ft 468 kts 28°
2026-02-20 09:52 46.88805 17.41667 34023 ft 468 kts 28°
2026-02-20 09:53 46.94676 17.45844 34002 ft 470 kts 28°
2026-02-20 09:53 47.00574 17.50035 34006 ft 472 kts 28°
2026-02-20 09:54 47.06486 17.54266 34014 ft 473 kts 28°
2026-02-20 09:54 47.12411 17.58518 34037 ft 474 kts 28°
2026-02-20 09:55 47.18314 17.62756 34046 ft 476 kts 28°
2026-02-20 09:55 47.24266 17.67037 34063 ft 476 kts 28°
2026-02-20 09:56 47.29214 17.70610 34058 ft 477 kts 28°
2026-02-20 09:56 47.36187 17.75649 34068 ft 477 kts 28°
2026-02-20 09:57 47.42116 17.79942 34075 ft 478 kts 28°
2026-02-20 09:57 47.48080 17.84276 34076 ft 478 kts 28°
2026-02-20 09:58 47.54046 17.88631 34088 ft 478 kts 28°
2026-02-20 09:58 47.60005 17.92998 34089 ft 478 kts 28°
2026-02-20 09:59 47.65963 17.97365 34089 ft 478 kts 28°
2026-02-20 09:59 47.71928 18.01751 34086 ft 478 kts 28°
2026-02-20 10:00 47.77891 18.06145 34087 ft 478 kts 28°
2026-02-20 10:00 47.83857 18.10542 34086 ft 479 kts 27°
2026-02-20 10:01 47.89783 18.14924 34093 ft 477 kts 27°
2026-02-20 10:01 47.95724 18.19335 34095 ft 476 kts 27°
2026-02-20 10:02 48.01637 18.23736 34108 ft 474 kts 27°
2026-02-20 10:02 48.07535 18.28132 34110 ft 473 kts 26°
2026-02-20 10:03 48.12413 18.31777 34108 ft 470 kts 26°
2026-02-20 10:03 48.19230 18.36897 34097 ft 467 kts 26°
2026-02-20 10:04 48.24993 18.41241 34100 ft 466 kts 26°
2026-02-20 10:04 48.30793 18.45605 34083 ft 466 kts 26°
2026-02-20 10:05 48.35653 18.49275 34069 ft 467 kts 26°
2026-02-20 10:05 48.41435 18.53652 34064 ft 468 kts 26°
2026-02-20 10:06 48.47258 18.58072 34080 ft 469 kts 25°
2026-02-20 10:06 48.53081 18.62508 34071 ft 470 kts 25°
2026-02-20 10:07 48.58920 18.66962 34072 ft 470 kts 25°
2026-02-20 10:07 48.64757 18.71439 34077 ft 471 kts 26°
2026-02-20 10:08 48.70604 18.75932 34092 ft 471 kts 25°
2026-02-20 10:08 48.76447 18.80415 34091 ft 471 kts 25°
2026-02-20 10:09 48.82262 18.84888 34096 ft 471 kts 25°
2026-02-20 10:09 48.88106 18.89410 34098 ft 471 kts 25°
2026-02-20 10:10 48.93958 18.93945 34091 ft 472 kts 25°
2026-02-20 10:10 48.99813 18.98507 34092 ft 473 kts 25°
2026-02-20 10:11 49.05670 19.03075 34118 ft 473 kts 25°
2026-02-20 10:11 49.11533 19.07649 34118 ft 474 kts 24°
2026-02-20 10:12 49.17415 19.12244 34108 ft 475 kts 24°
2026-02-20 10:12 49.23266 19.16852 34122 ft 476 kts 24°
2026-02-20 10:13 49.29155 19.21502 34159 ft 475 kts 24°
2026-02-20 10:13 49.35025 19.26132 34182 ft 474 kts 24°
2026-02-20 10:14 49.40875 19.30754 34179 ft 473 kts 24°
2026-02-20 10:15 49.53215 19.40578 34215 ft 472 kts 24°
2026-02-20 10:15 49.58997 19.45205 34214 ft 471 kts 24°
2026-02-20 10:16 49.64861 19.49739 34211 ft 470 kts 21°
2026-02-20 10:16 49.70839 19.53756 34242 ft 467 kts 18°
2026-02-20 10:17 49.76827 19.57654 34252 ft 466 kts 19°
2026-02-20 10:17 49.82763 19.61679 34249 ft 465 kts 20°
2026-02-20 10:18 49.88662 19.65779 34259 ft 464 kts 20°
2026-02-20 10:18 49.93554 19.69186 34329 ft 463 kts 19°
2026-02-20 10:19 50.00374 19.73914 34332 ft 461 kts 19°
2026-02-20 10:19 50.06221 19.77964 34329 ft 460 kts 19°
2026-02-20 10:20 50.12053 19.82023 34328 ft 458 kts 18°
2026-02-20 10:20 50.16906 19.85409 34317 ft 455 kts 18°
2026-02-20 10:21 50.22687 19.89451 34308 ft 455 kts 18°
2026-02-20 10:21 50.28462 19.93502 34304 ft 455 kts 18°
2026-02-20 10:22 50.34233 19.97568 34315 ft 455 kts 18°
2026-02-20 10:22 50.39975 20.01618 34306 ft 455 kts 18°
2026-02-20 10:23 50.45745 20.05698 34302 ft 455 kts 18°
2026-02-20 10:23 50.51509 20.09786 34300 ft 455 kts 18°
2026-02-20 10:24 50.57274 20.13886 34320 ft 454 kts 17°
2026-02-20 10:24 50.63031 20.17991 34320 ft 453 kts 17°
2026-02-20 10:25 50.68779 20.22100 34309 ft 453 kts 17°
2026-02-20 10:25 50.74518 20.26211 34354 ft 453 kts 17°
2026-02-20 10:26 50.80215 20.30307 34293 ft 451 kts 17°
2026-02-20 10:26 50.85930 20.34431 34293 ft 452 kts 17°
2026-02-20 10:27 50.91654 20.38557 34297 ft 452 kts 17°
2026-02-20 10:27 50.97377 20.42698 34329 ft 452 kts 17°
2026-02-20 10:28 51.03106 20.46871 34320 ft 453 kts 17°
2026-02-20 10:28 51.08835 20.51050 34317 ft 453 kts 17°
2026-02-20 10:29 51.14571 20.55240 34318 ft 453 kts 17°
2026-02-20 10:29 51.20263 20.59414 34351 ft 453 kts 17°
2026-02-20 10:30 51.25978 20.63609 34333 ft 451 kts 17°
2026-02-20 10:30 51.31676 20.67800 34335 ft 451 kts 17°
2026-02-20 10:31 51.37373 20.72013 34339 ft 450 kts 17°
2026-02-20 10:31 51.43052 20.76228 34335 ft 448 kts 17°
2026-02-20 10:32 51.48708 20.80436 34335 ft 448 kts 17°
2026-02-20 10:32 51.54367 20.84656 34335 ft 448 kts 17°
2026-02-20 10:33 51.59990 20.88848 34336 ft 448 kts 17°
2026-02-20 10:33 51.65649 20.93080 34335 ft 448 kts 17°
2026-02-20 10:34 51.71308 20.97323 34335 ft 449 kts 17°
2026-02-20 10:34 51.76970 21.01579 34335 ft 449 kts 17°
2026-02-20 10:35 51.82627 21.05862 34336 ft 449 kts 17°
2026-02-20 10:35 51.88252 21.10135 34326 ft 443 kts 16°
2026-02-20 10:36 51.93830 21.14361 34331 ft 443 kts 16°
2026-02-20 10:36 51.99418 21.18611 34329 ft 443 kts 16°
2026-02-20 10:37 52.05001 21.22875 34340 ft 444 kts 16°
2026-02-20 10:37 52.10595 21.27148 34383 ft 444 kts 15°
2026-02-20 10:38 52.16147 21.31412 34378 ft 444 kts 16°
2026-02-20 10:38 52.21736 21.35727 34374 ft 444 kts 16°
2026-02-20 10:39 52.27328 21.40053 34370 ft 444 kts 16°
2026-02-20 10:39 52.32905 21.44370 34353 ft 442 kts 15°
2026-02-20 10:40 52.38474 21.48695 34353 ft 443 kts 15°
2026-02-20 10:40 52.44045 21.53026 34352 ft 443 kts 15°
2026-02-20 10:41 52.49620 21.57365 34358 ft 444 kts 15°
2026-02-20 10:41 52.55166 21.61714 34390 ft 443 kts 16°
2026-02-20 10:42 52.60731 21.66099 34382 ft 443 kts 16°
2026-02-20 10:42 52.66287 21.70483 34381 ft 443 kts 16°
2026-02-20 10:43 52.71844 21.74869 34383 ft 443 kts 16°
2026-02-20 10:43 52.80082 21.81413 34357 ft 437 kts 16°
2026-02-20 10:44 52.85581 21.85773 34352 ft 437 kts 16°
2026-02-20 10:44 52.91066 21.90139 34354 ft 438 kts 17°
2026-02-20 10:45 52.96560 21.94532 34408 ft 438 kts 17°
2026-02-20 10:45 53.02018 21.98912 34397 ft 437 kts 17°
2026-02-20 10:46 53.07485 22.03314 34386 ft 436 kts 17°
2026-02-20 10:46 53.12951 22.07715 34380 ft 436 kts 17°
2026-02-20 10:47 53.18403 22.12127 34376 ft 436 kts 17°
2026-02-20 10:47 53.23849 22.16552 34363 ft 435 kts 18°
2026-02-20 10:48 53.29292 22.20988 34359 ft 435 kts 18°
2026-02-20 10:48 53.34738 22.25433 34360 ft 435 kts 18°
2026-02-20 10:49 53.40149 22.29848 34363 ft 435 kts 18°
2026-02-20 10:49 53.45600 22.34309 34388 ft 436 kts 18°
2026-02-20 10:50 53.51050 22.38807 34373 ft 436 kts 18°
2026-02-20 10:50 53.56500 22.43314 34364 ft 436 kts 18°
2026-02-20 10:51 53.61950 22.47823 34362 ft 437 kts 18°
2026-02-20 10:51 53.67407 22.52343 34365 ft 436 kts 19°
2026-02-20 10:52 53.72837 22.56868 34362 ft 435 kts 19°
2026-02-20 10:52 53.78233 22.61384 34357 ft 435 kts 19°
2026-02-20 10:53 53.83660 22.65923 34354 ft 435 kts 19°
2026-02-20 10:53 53.89092 22.70475 34353 ft 435 kts 19°
2026-02-20 10:54 53.94516 22.75050 34346 ft 435 kts 19°
2026-02-20 10:54 53.99946 22.79634 34346 ft 435 kts 19°
2026-02-20 10:55 54.05370 22.84225 34346 ft 435 kts 19°
2026-02-20 10:55 54.10759 22.88805 34388 ft 435 kts 19°
2026-02-20 10:56 54.16164 22.93422 34351 ft 433 kts 19°
2026-02-20 10:56 54.21549 22.98024 34347 ft 433 kts 19°
2026-02-20 10:57 54.26932 23.02636 34343 ft 432 kts 19°
2026-02-20 10:57 54.32427 23.06423 34339 ft 419 kts
2026-02-20 10:58 54.38107 23.08290 34334 ft 414 kts
2026-02-20 10:58 54.43756 23.10085 34323 ft 413 kts
2026-02-20 10:59 54.49375 23.11894 34324 ft 413 kts
2026-02-20 10:59 54.55030 23.13730 34313 ft 413 kts
2026-02-20 11:00 54.60684 23.15573 34364 ft 413 kts
2026-02-20 11:00 54.66330 23.17409 34355 ft 412 kts
2026-02-20 11:01 54.71967 23.19242 34339 ft 412 kts
2026-02-20 11:01 54.77600 23.21078 34333 ft 411 kts
2026-02-20 11:02 54.83229 23.22931 34326 ft 411 kts
2026-02-20 11:02 54.88822 23.24775 34325 ft 411 kts
2026-02-20 11:03 54.94467 23.26645 34319 ft 410 kts
2026-02-20 11:03 55.00037 23.28486 34317 ft 410 kts
2026-02-20 11:04 55.05653 23.30344 34311 ft 410 kts
2026-02-20 11:04 55.11265 23.32221 34310 ft 411 kts
2026-02-20 11:05 55.16876 23.34103 34328 ft 410 kts
2026-02-20 11:05 55.22488 23.35969 34319 ft 410 kts
2026-02-20 11:06 55.28098 23.37843 34304 ft 410 kts
2026-02-20 11:06 55.33709 23.39733 34296 ft 410 kts
2026-02-20 11:07 55.39316 23.41629 34334 ft 410 kts
2026-02-20 11:07 55.43974 23.43200 34297 ft 409 kts
2026-02-20 11:08 55.50466 23.45399 34280 ft 409 kts
2026-02-20 11:08 55.55151 23.46993 34258 ft 409 kts
2026-02-20 11:09 55.60702 23.48900 34271 ft 408 kts
2026-02-20 11:09 55.66285 23.50823 34298 ft 408 kts
2026-02-20 11:10 55.71854 23.52729 34289 ft 407 kts
2026-02-20 11:10 55.77420 23.54635 34271 ft 407 kts
2026-02-20 11:11 55.82980 23.56558 34267 ft 407 kts
2026-02-20 11:11 55.88540 23.58494 34258 ft 407 kts
2026-02-20 11:12 55.94098 23.60418 34265 ft 406 kts
2026-02-20 11:12 55.99604 23.62326 34251 ft 405 kts
2026-02-20 11:13 56.05139 23.64256 34247 ft 405 kts
2026-02-20 11:13 56.10680 23.66201 34240 ft 406 kts
2026-02-20 11:14 56.16224 23.68165 34247 ft 406 kts
2026-02-20 11:14 56.21764 23.70115 34263 ft 406 kts
2026-02-20 11:15 56.27311 23.72067 34255 ft 406 kts
2026-02-20 11:15 56.32860 23.74035 34246 ft 406 kts
2026-02-20 11:16 56.38402 23.76011 34243 ft 406 kts
2026-02-20 11:16 56.43921 23.77874 34239 ft 405 kts
2026-02-20 11:17 56.49472 23.79688 34238 ft 405 kts
2026-02-20 11:17 56.55023 23.81507 34234 ft 406 kts
2026-02-20 11:18 56.60578 23.83356 34206 ft 406 kts
2026-02-20 11:18 56.66123 23.85231 34221 ft 405 kts
2026-02-20 11:19 56.71672 23.87109 34239 ft 405 kts
2026-02-20 11:19 56.77211 23.88982 34237 ft 404 kts
2026-02-20 11:20 56.82744 23.90855 34231 ft 404 kts